Hourly Weather Roundup
Issued by NWS Central Illinois

Home | Current Version | Previous Version | Text Only | Print | Product List | Glossary On
Versions: 1 2 3 4 5 6 7 8 9 10 11 12 13 14 15 16 17 18 19 20 21 22 23 24 25 26 27 28 29 30 31 32 33 34 35 36 37 38 39 40 41 42 43 44 45 46 47 48 49 50
427
NZUS43 KILX 291410
HWRILX

AREA WEATHER ROUNDUP
NATIONAL WEATHER SERVICE, LINCOLN IL
900 AM CDT FRI JUL 29 2016


CITY           SKY/WX    TMP DP  RH WIND       PRES   REMARKS
BLOOMINGTON    PTSUNNY   74  70  87 NW3       29.95S
CHAMPAIGN      MOSUNNY   74  71  91 VRB3      29.94S
DANVILLE       CLOUDY    73  73  99 CALM      29.91S FOG
DECATUR        CLOUDY    78  69  73 CALM      29.94S HX  80
EFFINGHAM      SUNNY     77  75  92 CALM      29.96R
FLORA          CLOUDY    75  73  91 CALM      29.95R
GALESBURG      CLOUDY    69  68  97 CALM      29.96R
JACKSONVILLE   CLOUDY    70  68  93 CALM      29.97R
LACON          CLOUDY    70  69  97 CALM      29.93S FOG
LAWRENCEVILLE  CLOUDY    75  72  90 CALM      29.94S
LITCHFIELD       N/A    N/A N/A N/A MISG        N/A
$$


CITY           SKY/WX    TMP DP  RH WIND       PRES   REMARKS
LINCOLN        PTSUNNY   74  71  92 CALM      29.94R
MACOMB         CLOUDY    67  67 100 NW5       29.99R FOG
MATTOON        SUNNY     76  69  79 W3        29.94R
MT CARMEL AP   CLOUDY    76  72  88 W3        29.94R
OLNEY-NOBLE AP MOSUNNY   73  73 100 CALM      29.95R
PARIS          FOG       72  72 100 CALM      29.95R VSB 1/2
PEORIA         CLOUDY    72  70  93 W5        29.95R FOG
PONTIAC        NOT AVBL
RANTOUL        NOT AVBL
ROBINSON       SUNNY     73  71  93 CALM      29.94S
SPRINGFIELD    CLOUDY    72  69  90 W5        29.96R
TAYLORVILLE    CLOUDY    73  70  91 MISG      29.96R
$$

...REGIONAL REPORTS...


CITY           SKY/WX    TMP DP  RH WIND       PRES   REMARKS
CHICAGO O`HARE PTSUNNY   77  69  76 NE7       29.93S
KANKAKEE       PTSUNNY   76  69  80 E5        29.94R
MOLINE         CLOUDY    75  68  78 W3        29.94R
MOUNT STERLING PTSUNNY   71  68  92 W5        29.97S
MOUNT VERNON   CLOUDY    75  70  83 MISG      29.95R
PITTSFIELD     PTSUNNY   72  69  90 W3        29.99S
QUINCY         CLOUDY    70  70 100 W3        29.97S
ROCKFORD       CLOUDY    73  66  78 N8        29.96R
$$


CITY           SKY/WX    TMP DP  RH WIND       PRES   REMARKS
BURLINGTON     CLOUDY    68  66  93 W6        29.97R
CEDAR RAPIDS   CLOUDY    68  68 100 N5        29.96R
DES MOINES     CLOUDY    68  61  78 N7        30.02R
KIRKSVILLE     PTSUNNY   70  64  81 N7        30.01S
OTTUMWA        CLOUDY    66  63  90 W8        30.00R
ST LOUIS       PTSUNNY   79  67  66 NW6       29.97R HX  81
$$


CITY           SKY/WX    TMP DP  RH WIND       PRES   REMARKS
TERRE HAUTE    SUNNY     76  71  85 CALM      29.94R
EVANSVILLE     MOSUNNY   77  71  82 SW3       29.95R
INDIANAPOLIS   MOSUNNY   77  71  82 VRB3      29.94S
LAFAYETTE      SUNNY     76  73  91 S3        29.92R
MADISON        LGT RAIN  65  63  93 NE8       29.98S
MILWAUKEE      CLOUDY    72  64  76 NE13      29.97R
$$






USA.gov is the U.S. government's official web portal to all federal, state and local government web resources and services.